Le nostre stazioni meteo in Italia

Pubblicità
Il mio iltempo24.it
Brescia/Ghedi, Italia (16088): Temperatura & dewpoint: 17.07.2019 06:00:00 - 23.07.2019 06:00:00 (CEST)Brescia/Ghedi, Italia (16088): velocità del vento: 17.07.2019 06:00:00 - 23.07.2019 06:00:00 (CEST)Brescia/Ghedi, Italia (16088): direzione del vento: 17.07.2019 06:00:00 - 23.07.2019 06:00:00 (CEST)Brescia/Ghedi, Italia (16088): reduced air pressure: 17.07.2019 06:00:00 - 23.07.2019 06:00:00 (CEST)Brescia/Ghedi, Italia (16088): visibility: 17.07.2019 06:00:00 - 23.07.2019 06:00:00 (CEST)
Data & Tempo tt [°C] td [°C] ff [km/h] ff [kn] dd ppp [hPa] vv [km]
23.07.2019 06:00:00 25,0 23,2 8 4 ENE 1018,9 5
23.07.2019 05:00:00 25,2 23,4 5 3 N 1018,8 8
23.07.2019 04:00:00 25,0 23,4 2 1 E 1018,9 8
23.07.2019 03:00:00 25,6 23,5 4 2 NE 1019,0 8
23.07.2019 02:00:00 26,0 23,9 5 3 NE 1019,1 8
23.07.2019 01:00:00 26,4 23,7 2 1 ENE 1019,1 8
23.07.2019 00:00:00 27,0 24,1 2 1 NNE 1019,1 8
22.07.2019 23:00:00 27,4 23,4 4 2 N 1018,8 8
22.07.2019 22:00:00 28,4 24,2 2 1 S 1018,8 8
22.07.2019 21:00:00 30,2 23,6 2 1 S 1018,5 10
22.07.2019 20:00:00 31,8 23,1 5 3 O 1018,7 10
22.07.2019 19:00:00 32,8 22,9 8 4 O 1018,9 10
22.07.2019 18:00:00 33,0 22,8 8 4 SO 1019,2 10
22.07.2019 17:00:00 33,2 22,9 8 4 OSO 1019,8 10
22.07.2019 16:00:00 33,0 22,8 5 3 S 1020,2 10
22.07.2019 15:00:00 32,2 23,5 8 4 SO 1020,7 10
22.07.2019 14:00:00 32,0 22,7 5 3 S 1020,9 10
22.07.2019 13:00:00 31,2 22,8 8 4 SO 1021,1 10
22.07.2019 12:00:00 30,8 23,0 5 3 SO 1021,3 10
22.07.2019 11:00:00 30,0 22,2 8 4 SSE 1021,2 10
22.07.2019 10:00:00 29,0 21,8 5 3 N 1021,1 10
22.07.2019 09:00:00 27,0 21,5 4 2 SSO 1020,7 10
22.07.2019 08:00:00 26,2 22,3 2 1 S 1020,5 10
22.07.2019 07:00:00 24,4 22,3 4 2 ESE 1020,4 10
22.07.2019 06:00:00 25,0 22,5 4 2 N 1019,8 10
22.07.2019 05:00:00 25,0 22,5 4 2 NNE 1019,8 10
22.07.2019 04:00:00 25,0 22,5 5 3 ENE 1020,1 10
22.07.2019 03:00:00 25,0 22,5 8 4 ENE 1020,1 10
22.07.2019 02:00:00 26,0 22,3 9 5 ENE 1019,9 10
22.07.2019 01:00:00 26,0 22,3 9 5 ENE 1019,9 10
22.07.2019 00:00:00 25,9 22,2 11 6 E 1019,3 10
21.07.2019 23:00:00 27,2 22,6 5 3 ENE 1018,4 10
21.07.2019 22:00:00 28,0 23,4 8 4 ENE 1018,0 10
21.07.2019 21:00:00 30,0 23,0 4 2 S 1017,1 10
21.07.2019 20:00:00 31,4 22,1 5 3 ONO 1017,1 15
21.07.2019 19:00:00 31,4 21,0 8 4 O 1016,9 15
21.07.2019 18:00:00 31,8 20,7 8 4 O 1016,9 15
21.07.2019 17:00:00 32,0 19,6 9 5 OSO 1017,3 15
21.07.2019 16:00:00 31,8 18,4 11 6 OSO 1017,4 15
21.07.2019 15:00:00 31,6 18,6 11 6 OSO 1017,8 15
21.07.2019 14:00:00 31,4 18,7 11 6 O 1017,9 15
21.07.2019 13:00:00 30,6 18,4 13 7 O 1018,0 15
21.07.2019 12:00:00 30,0 20,0 11 6 O 1018,1 10
21.07.2019 11:00:00 29,0 21,3 9 5 O 1018,2 10
21.07.2019 10:00:00 28,0 22,0 5 3 SSO 1018,0 10
21.07.2019 09:00:00 27,0 21,3 4 2 SO 1018,1 10
21.07.2019 08:00:00 25,6 21,3 4 2 O 1018,2 10
21.07.2019 07:00:00 24,6 21,3 2 1 N 1017,6 10
21.07.2019 06:00:00 23,6 20,9 4 2 N 1017,3 10
21.07.2019 05:00:00 24,0 21,5 5 3 NNE 1017,3 10
21.07.2019 04:00:00 24,4 21,1 9 5 ENE 1017,2 10
21.07.2019 03:00:00 25,2 19,6 8 4 OSO 1017,2 10
21.07.2019 02:00:00 25,6 20,4 8 4 O 1017,2 10
21.07.2019 01:00:00 26,0 21,0 5 3 SSO 1017,2 10
21.07.2019 00:00:00 26,4 20,7 4 2 SO 1016,6 10
20.07.2019 23:00:00 26,6 20,2 5 3 O 1016,2 10
20.07.2019 22:00:00 27,0 19,6 8 4 ONO 1016,0 10
20.07.2019 21:00:00 28,2 19,4 5 3 O 1016,0 10
20.07.2019 20:00:00 30,2 19,9 8 4 O 1015,7 10
20.07.2019 19:00:00 31,1 18,8 9 5 OSO 1015,8 10
20.07.2019 18:00:00 31,6 18,6 9 5 O 1015,9 10
20.07.2019 17:00:00 32,0 19,6 8 4 OSO 1016,1 10
20.07.2019 16:00:00 31,8 19,8 5 3 SSO 1016,4 10
20.07.2019 15:00:00 31,2 20,5 9 5 OSO 1016,5 10
20.07.2019 14:00:00 31,0 20,9 8 4 OSO 1016,9 10
20.07.2019 13:00:00 30,0 21,1 8 4 SSE 1016,9 10
20.07.2019 12:00:00 29,0 21,3 8 4 SSE 1017,0 10
20.07.2019 11:00:00 28,2 21,3 8 4 S 1017,0 10
20.07.2019 10:00:00 27,2 21,5 9 5 SE 1016,8 10
20.07.2019 09:00:00 26,0 21,4 4 2 S 1016,7 10
20.07.2019 08:00:00 24,5 21,0 4 2 S 1016,0 10
20.07.2019 07:00:00 22,9 21,0 2 1 SE 1015,7 10
20.07.2019 06:00:00 23,0 20,9 9 5 ENE 1015,7 10
20.07.2019 05:00:00 23,0 20,9 8 4 ENE 1015,7 10
20.07.2019 04:00:00 23,5 20,8 11 6 NE 1015,5 10
20.07.2019 03:00:00 23,5 20,8 11 6 ENE 1015,5 10
20.07.2019 02:00:00 23,9 21,2 8 4 ENE 1015,5 10
20.07.2019 01:00:00 23,9 21,2 8 4 ESE 1014,7 10
20.07.2019 00:00:00 25,0 21,3 4 2 NNE 1014,7 10
19.07.2019 23:00:00 25,2 20,5 5 3 N 1014,7 10
19.07.2019 22:00:00 25,9 21,6 4 2 SSE 1013,9 10
19.07.2019 21:00:00 29,0 19,9 2 1 SSO 1013,5 10
19.07.2019 20:00:00 29,8 19,2 5 3 OSO 1014,0 10
19.07.2019 19:00:00 30,6 18,7 5 3 SO 1014,0 10
19.07.2019 18:00:00 30,8 18,5 8 4 S 1014,0 10
19.07.2019 17:00:00 30,8 18,5 8 4 SSO 1014,0 10
19.07.2019 16:00:00 31,0 18,0 5 3 SO 1015,0 10
19.07.2019 15:00:00 30,2 18,0 8 4 OSO 1015,1 10
19.07.2019 14:00:00 30,2 19,0 5 3 SSO 1015,3 10
19.07.2019 13:00:00 29,2 19,8 4 2 SSO 1015,7 10
19.07.2019 12:00:00 29,0 19,9 5 3 OSO 1015,7 10
19.07.2019 11:00:00 28,4 19,9 5 3 SSE 1015,7 10
19.07.2019 10:00:00 27,2 19,3 5 3 S 1015,4 10
19.07.2019 09:00:00 25,4 19,5 4 2 S 1015,3 10
19.07.2019 08:00:00 23,0 19,6 5 3 ENE 1014,7 10
19.07.2019 07:00:00 21,6 18,8 8 4 ENE 1014,6 10
19.07.2019 06:00:00 21,0 18,4 8 4 NE 1014,6 10
19.07.2019 05:00:00 21,0 18,4 8 4 NE 1014,3 10
19.07.2019 04:00:00 21,2 18,6 8 4 ENE 1014,3 10
19.07.2019 03:00:00 21,6 18,4 11 6 ENE 1014,0 10
19.07.2019 02:00:00 21,8 18,6 5 3 NNE 1013,9 10
19.07.2019 01:00:00 22,0 19,4 2 1 NE 1013,8 10
19.07.2019 00:00:00 23,0 19,4 8 4 N 1012,9 10
18.07.2019 23:00:00 23,6 18,5 8 4 N 1012,7 10
18.07.2019 22:00:00 24,4 18,8 8 4 ENE 1012,3 10
18.07.2019 21:00:00 25,4 19,5 8 4 NE 1011,6 10
18.07.2019 20:00:00 27,2 20,0 13 7 ENE 1011,4 10
18.07.2019 19:00:00 28,0 21,3 13 7 ENE 1011,4 10
18.07.2019 18:00:00 28,0 20,3 4 2 ENE 1011,4 10
18.07.2019 17:00:00 28,0 20,0 4 2 S 1011,5 10
18.07.2019 16:00:00 29,0 19,9 9 5 S 1011,3 10
18.07.2019 15:00:00 29,0 20,5 8 4 S 1011,5 10
18.07.2019 14:00:00 28,3 19,0 8 4 SSE 1011,9 10
18.07.2019 13:00:00 27,5 19,0 11 6 SSE 1012,2 10
18.07.2019 12:00:00 27,0 18,8 11 6 E 1012,3 10
18.07.2019 11:00:00 26,8 19,4 11 6 ESE 1011,9 10
18.07.2019 10:00:00 26,0 19,4 16 9 E 1011,5 10
18.07.2019 09:00:00 24,9 20,0 9 5 ENE 1011,2 10
18.07.2019 08:00:00 23,6 20,9 11 6 E 1010,7 10
18.07.2019 07:00:00 22,5 19,9 2 1 ONO 1010,3 10
18.07.2019 06:00:00 23,0 19,0 9 5 E 1009,9 10
18.07.2019 05:00:00 23,0 19,0 16 9 E 1009,3 20
18.07.2019 04:00:00 23,5 19,9 9 5 ENE 1009,7 20
18.07.2019 03:00:00 23,8 20,1 8 4 SE 1010,1 20
18.07.2019 02:00:00 24,6 20,9 8 4 SSE 1010,1 20
18.07.2019 01:00:00 24,5 20,4 2 1 NNE 1009,7 20
18.07.2019 00:00:00 25,0 20,3 8 4 O 1009,6 20
17.07.2019 23:00:00 25,0 19,8 2 1 O 1009,6 20
17.07.2019 22:00:00 27,5 21,1 4 2 O 1009,1 20
17.07.2019 21:00:00 28,0 16,9 2 1 O 1009,0 20
17.07.2019 20:00:00 29,4 16,9 5 3 OSO 1009,0 20
17.07.2019 19:00:00 30,2 15,9 9 5 OSO 1009,0 20
17.07.2019 18:00:00 31,0 15,4 8 4 OSO 1009,4 20
17.07.2019 17:00:00 30,6 14,7 9 5 OSO 1010,0 20
17.07.2019 16:00:00 31,0 15,8 9 5 OSO 1010,5 15
17.07.2019 15:00:00 30,2 15,5 8 4 SO 1010,8 15
17.07.2019 14:00:00 30,0 16,1 8 4 S 1011,4 15
17.07.2019 13:00:00 29,8 16,3 8 4 SSO 1011,8 15
17.07.2019 12:00:00 29,0 17,8 4 2 SO 1012,3 15
17.07.2019 11:00:00 27,8 18,5 5 3 S 1012,8 15
17.07.2019 10:00:00 26,2 19,8 5 3 SSO 1013,0 15
17.07.2019 09:00:00 24,8 19,0 5 3 SSO 1013,1 20
17.07.2019 08:00:00 23,2 19,4 2 1 ONO 1012,9 20
17.07.2019 07:00:00 21,4 19,3 2 1 NNE 1013,0 20
17.07.2019 06:00:00 20,8 18,4 5 3 NNE 1013,0 20

tt = Temperatura
td = dewpoint
ff = velocità del vento
dd = direzione del vento
ppp = reduced air pressure
vv = visibility

Stazioni seguenti

WeatherPro
AMSI
MeteoEarth